Location: Mentone
(34.5413°N, 85.5351°W)
Time: 06:16:18
(UTC-06:00)

A-11 Canister half - Visible Passes

Search period start: 04 December 2016 00:00
Search period end: 14 December 2016 00:00
Orbit: 1527 x 1683 km, 47.3° (Epoch: 02 December)

Date Brightness Start Highest point End Pass type
(mag) Time Alt. Az. Time Alt. Az. Time Alt. Az.
04 Dec 9.7 17:57:29 10° W 18:07:06 44° NNW 18:13:18 22° NE visible
04 Dec 10.0 20:04:56 10° WNW 20:11:36 36° NNW 20:11:36 36° NNW visible
05 Dec 9.7 17:35:46 10° W 17:45:24 45° NNW 17:52:53 17° NE visible
05 Dec 9.8 19:43:15 10° WNW 19:51:11 40° N 19:51:11 40° N visible
05 Dec 11.3 21:49:04 10° NW 21:49:30 12° NW 21:49:30 12° NW visible
06 Dec 9.7 17:14:02 10° W 17:23:42 46° NNW 17:32:29 13° NE visible
06 Dec 9.7 19:21:34 10° WNW 19:30:48 41° N 19:30:48 41° N visible
06 Dec 11.0 21:27:26 10° NW 21:29:06 16° NW 21:29:06 16° NW visible
07 Dec 9.7 16:52:18 10° W 17:02:01 47° NNW 17:11:40 10° NE visible
07 Dec 9.6 18:59:52 10° WNW 19:09:18 41° N 19:10:25 40° NNE visible
07 Dec 10.7 21:05:49 10° NW 21:08:43 22° NW 21:08:43 22° NW visible
08 Dec 9.6 18:38:10 10° WNW 18:47:36 41° N 18:50:03 36° NE visible
08 Dec 10.4 20:44:11 10° NW 20:48:21 29° NW 20:48:21 29° NW visible
09 Dec 9.7 18:16:28 10° WNW 18:25:53 40° N 18:29:43 30° NE visible
09 Dec 10.1 20:22:33 10° NW 20:28:02 37° NW 20:28:02 37° NW visible
10 Dec 9.7 17:54:46 10° WNW 18:04:10 40° N 18:09:25 25° NE visible
10 Dec 9.7 20:00:55 10° NW 20:07:44 46° NNW 20:07:44 46° NNW visible
11 Dec 9.7 17:33:03 10° WNW 17:42:27 40° N 17:49:11 19° ENE visible
11 Dec 9.4 19:39:17 10° NW 19:47:29 55° NNW 19:47:29 55° NNW visible
11 Dec 11.2 21:44:52 10° WNW 21:45:48 13° WNW 21:45:48 13° WNW visible
12 Dec 9.8 17:11:21 10° WNW 17:20:45 40° N 17:28:58 14° ENE visible
12 Dec 9.1 19:17:38 10° NW 19:27:18 60° NNE 19:27:18 60° NNE visible
12 Dec 10.9 21:23:11 10° WNW 21:25:37 19° WNW 21:25:37 19° WNW visible
13 Dec 9.8 16:49:39 10° WNW 16:59:01 40° N 17:08:19 10° ENE visible
13 Dec 9.1 18:56:01 10° NW 19:06:02 59° NNE 19:07:10 56° NE visible
13 Dec 10.5 21:01:32 10° WNW 21:05:30 27° WNW 21:05:30 27° WNW visible
